Time,TemperatureF,DewpointF,PressureIn,WindDirection,WindDirectionDegrees,WindSpeedMPH,WindSpeedGustMPH,Humidity,HourlyPrecipIn,Conditions,Clouds,dailyrainin,SoftwareType,DateUTC
2013-05-25 00:12:00,49.6,46.2,29.90,WSW,247,1.7,-999.0,88,-99.99,,,0.00,Acu-Link.com,2013-05-25 07:12:00,
2013-05-25 00:27:00,49.5,46.1,29.90,SSE,157,1.7,-999.0,88,-99.99,,,0.00,Acu-Link.com,2013-05-25 07:27:00,
2013-05-25 00:42:00,49.5,46.4,29.90,South,180,2.2,-999.0,89,-99.99,,,0.00,Acu-Link.com,2013-05-25 07:42:00,
2013-05-25 00:57:00,49.3,46.2,29.90,North,0,2.2,-999.0,89,-99.99,,,0.00,Acu-Link.com,2013-05-25 07:57:00,
2013-05-25 01:12:00,49.1,46.3,29.90,SE,135,1.7,-999.0,90,-99.99,,,0.00,Acu-Link.com,2013-05-25 08:12:00,
2013-05-25 01:28:00,49.1,46.3,29.90,NNW,337,1.7,-999.0,90,-99.99,,,0.00,Acu-Link.com,2013-05-25 08:28:00,
2013-05-25 01:43:00,49.1,46.6,29.90,ENE,67,1.1,-999.0,91,-99.99,,,0.00,Acu-Link.com,2013-05-25 08:43:00,
2013-05-25 01:59:00,48.9,46.4,29.90,NNE,22,1.7,-999.0,91,-99.99,,,0.00,Acu-Link.com,2013-05-25 08:59:00,
2013-05-25 02:15:00,48.9,46.7,29.90,West,270,1.1,-999.0,92,-99.99,,,0.00,Acu-Link.com,2013-05-25 09:15:00,
2013-05-25 02:30:00,48.9,46.7,29.90,NNE,22,1.7,-999.0,92,-99.99,,,0.00,Acu-Link.com,2013-05-25 09:30:00,
2013-05-25 02:45:00,48.7,46.5,29.90,West,270,1.7,-999.0,92,-99.99,,,0.00,Acu-Link.com,2013-05-25 09:45:00,
2013-05-25 03:00:00,48.7,46.8,29.90,SW,225,2.2,-999.0,93,-99.99,,,0.00,Acu-Link.com,2013-05-25 10:00:00,
2013-05-25 03:15:00,48.9,47.0,29.90,West,270,1.1,-999.0,93,-99.99,,,0.00,Acu-Link.com,2013-05-25 10:15:00,
2013-05-25 03:30:00,48.7,46.8,29.90,North,0,4.2,-999.0,93,-99.99,,,0.00,Acu-Link.com,2013-05-25 10:30:00,
2013-05-25 03:45:00,48.7,46.8,29.89,NW,315,0.0,-999.0,93,-99.99,,,0.00,Acu-Link.com,2013-05-25 10:45:00,
2013-05-25 04:00:00,48.6,46.7,29.88,NNE,22,1.1,-999.0,93,-99.99,,,0.00,Acu-Link.com,2013-05-25 11:00:00,
2013-05-25 04:16:00,48.6,46.7,29.89,NNW,337,0.0,-999.0,93,-99.99,,,0.00,Acu-Link.com,2013-05-25 11:16:00,
2013-05-25 04:31:00,48.6,46.7,29.89,ESE,112,0.0,-999.0,93,-99.99,,,0.00,Acu-Link.com,2013-05-25 11:31:00,
2013-05-25 04:46:00,48.4,46.5,29.89,SE,135,0.0,-999.0,93,-99.99,,,0.00,Acu-Link.com,2013-05-25 11:46:00,
2013-05-25 05:01:00,48.0,46.1,29.89,NNE,22,1.7,-999.0,93,-99.99,,,0.00,Acu-Link.com,2013-05-25 12:01:00,
2013-05-25 05:16:00,48.2,46.6,29.90,NNW,337,2.7,-999.0,94,-99.99,,,0.00,Acu-Link.com,2013-05-25 12:16:00,
2013-05-25 05:31:00,48.4,46.5,29.89,SE,135,0.0,-999.0,93,-99.99,,,0.00,Acu-Link.com,2013-05-25 12:31:00,
2013-05-25 05:46:00,48.2,46.3,29.90,East,90,0.0,-999.0,93,-99.99,,,0.00,Acu-Link.com,2013-05-25 12:46:00,
2013-05-25 06:01:00,48.2,46.0,29.90,NNW,337,0.0,-999.0,92,-99.99,,,0.00,Acu-Link.com,2013-05-25 13:01:00,
2013-05-25 06:16:00,48.2,45.7,29.91,SSE,157,0.0,-999.0,91,-99.99,,,0.00,Acu-Link.com,2013-05-25 13:16:00,
2013-05-25 06:32:00,48.4,45.9,29.90,NNE,22,0.0,-999.0,91,-99.99,,,0.00,Acu-Link.com,2013-05-25 13:32:00,
2013-05-25 06:47:00,48.9,46.1,29.91,West,270,1.1,-999.0,90,-99.99,,,0.00,Acu-Link.com,2013-05-25 13:47:00,
2013-05-25 07:02:00,49.6,46.2,29.92,SW,225,1.7,-999.0,88,-99.99,,,0.00,Acu-Link.com,2013-05-25 14:02:00,
2013-05-25 07:17:00,50.4,47.3,29.91,ENE,67,1.7,-999.0,89,-99.99,,,0.00,Acu-Link.com,2013-05-25 14:17:00,
2013-05-25 07:32:00,51.1,47.4,29.91,West,270,2.7,-999.0,87,-99.99,,,0.00,Acu-Link.com,2013-05-25 14:32:00,
2013-05-25 07:47:00,51.8,47.7,29.92,WNW,292,1.1,-999.0,86,-99.99,,,0.00,Acu-Link.com,2013-05-25 14:47:00,
2013-05-25 08:03:00,52.7,48.0,29.92,NW,315,0.0,-999.0,84,-99.99,,,0.00,Acu-Link.com,2013-05-25 15:03:00,
2013-05-25 08:18:00,53.4,48.0,29.93,SW,225,1.7,-999.0,82,-99.99,,,0.00,Acu-Link.com,2013-05-25 15:18:00,
2013-05-25 08:33:00,54.1,48.1,29.91,SSE,157,5.8,-999.0,80,-99.99,,,0.00,Acu-Link.com,2013-05-25 15:33:00,
2013-05-25 08:48:00,54.7,48.7,29.93,ESE,112,1.7,-999.0,80,-99.99,,,0.00,Acu-Link.com,2013-05-25 15:48:00,
2013-05-25 09:03:00,55.0,49.3,29.92,West,270,2.2,-999.0,81,-99.99,,,0.00,Acu-Link.com,2013-05-25 16:03:00,
2013-05-25 09:18:00,55.8,49.7,29.92,North,0,4.7,-999.0,80,-99.99,,,0.00,Acu-Link.com,2013-05-25 16:18:00,
2013-05-25 09:33:00,56.7,49.9,29.92,NNW,337,5.8,-999.0,78,-99.99,,,0.00,Acu-Link.com,2013-05-25 16:33:00,
2013-05-25 09:48:00,57.4,50.2,29.92,South,180,2.7,-999.0,77,-99.99,,,0.00,Acu-Link.com,2013-05-25 16:48:00,
2013-05-25 10:03:00,58.3,50.8,29.93,NE,45,1.7,-999.0,76,-99.99,,,0.00,Acu-Link.com,2013-05-25 17:03:00,
2013-05-25 10:18:00,60.3,51.2,29.92,WNW,292,1.7,-999.0,72,-99.99,,,0.00,Acu-Link.com,2013-05-25 17:18:00,
2013-05-25 10:34:00,61.5,50.8,29.92,SSE,157,2.7,-999.0,68,-99.99,,,0.00,Acu-Link.com,2013-05-25 17:34:00,
2013-05-25 10:49:00,62.2,51.5,29.91,SE,135,2.2,-999.0,68,-99.99,,,0.00,Acu-Link.com,2013-05-25 17:49:00,
2013-05-25 11:04:00,63.7,51.3,29.92,ESE,112,2.2,-999.0,64,-99.99,,,0.00,Acu-Link.com,2013-05-25 18:04:00,
2013-05-25 11:20:00,64.2,51.3,29.92,ESE,112,4.2,-999.0,63,-99.99,,,0.00,Acu-Link.com,2013-05-25 18:20:00,
2013-05-25 11:36:00,64.8,51.9,29.92,ESE,112,0.0,-999.0,63,-99.99,,,0.00,Acu-Link.com,2013-05-25 18:36:00,
2013-05-25 11:51:00,65.5,51.7,29.92,ESE,112,1.7,-999.0,61,-99.99,,,0.00,Acu-Link.com,2013-05-25 18:51:00,
2013-05-25 12:06:00,67.1,52.7,29.92,SSE,157,3.2,-999.0,60,-99.99,,,0.00,Acu-Link.com,2013-05-25 19:06:00,
2013-05-25 12:21:00,67.3,52.5,29.91,West,270,1.7,-999.0,59,-99.99,,,0.00,Acu-Link.com,2013-05-25 19:21:00,
2013-05-25 12:36:00,68.0,52.2,29.91,NNW,337,1.7,-999.0,57,-99.99,,,0.00,Acu-Link.com,2013-05-25 19:36:00,
2013-05-25 12:51:00,69.3,53.9,29.92,South,180,2.2,-999.0,58,-99.99,,,0.00,Acu-Link.com,2013-05-25 19:51:00,
2013-05-25 13:07:00,68.5,53.1,29.91,SSE,157,4.2,-999.0,58,-99.99,,,0.00,Acu-Link.com,2013-05-25 20:07:00,
2013-05-25 13:22:00,70.3,54.3,29.91,NNE,22,2.2,-999.0,57,-99.99,,,0.00,Acu-Link.com,2013-05-25 20:22:00,
2013-05-25 13:37:00,70.3,54.3,29.91,ESE,112,1.7,-999.0,57,-99.99,,,0.00,Acu-Link.com,2013-05-25 20:37:00,
2013-05-25 13:52:00,70.5,53.5,29.91,South,180,2.2,-999.0,55,-99.99,,,0.00,Acu-Link.com,2013-05-25 20:52:00,
2013-05-25 14:07:00,70.3,53.4,29.91,SSE,157,1.7,-999.0,55,-99.99,,,0.00,Acu-Link.com,2013-05-25 21:07:00,
2013-05-25 14:22:00,69.4,52.0,29.91,ENE,67,2.7,-999.0,54,-99.99,,,0.00,Acu-Link.com,2013-05-25 21:22:00,
2013-05-25 14:37:00,71.1,53.1,29.91,ESE,112,1.7,-999.0,53,-99.99,,,0.00,Acu-Link.com,2013-05-25 21:37:00,
2013-05-25 14:52:00,71.8,53.2,29.91,North,0,2.7,-999.0,52,-99.99,,,0.00,Acu-Link.com,2013-05-25 21:52:00,
2013-05-25 15:09:00,70.0,52.6,29.91,North,0,4.2,-999.0,54,-99.99,,,0.00,Acu-Link.com,2013-05-25 22:09:00,
2013-05-25 15:24:00,69.6,51.7,29.91,ESE,112,2.2,-999.0,53,-99.99,,,0.00,Acu-Link.com,2013-05-25 22:24:00,
2013-05-25 15:39:00,70.0,52.6,29.91,SW,225,2.2,-999.0,54,-99.99,,,0.00,Acu-Link.com,2013-05-25 22:39:00,
2013-05-25 15:54:00,68.2,51.4,29.91,South,180,1.7,-999.0,55,-99.99,,,0.00,Acu-Link.com,2013-05-25 22:54:00,
2013-05-25 16:09:00,68.9,51.1,29.91,SSE,157,2.2,-999.0,53,-99.99,,,0.00,Acu-Link.com,2013-05-25 23:09:00,
2013-05-25 16:25:00,67.5,51.2,29.91,SE,135,2.7,-999.0,56,-99.99,,,0.00,Acu-Link.com,2013-05-25 23:25:00,
2013-05-25 16:40:00,66.7,50.5,29.91,NW,315,4.2,-999.0,56,-99.99,,,0.00,Acu-Link.com,2013-05-25 23:40:00,
2013-05-25 16:55:00,67.1,51.4,29.91,ESE,112,3.7,-999.0,57,-99.99,,,0.00,Acu-Link.com,2013-05-25 23:55:00,
2013-05-25 17:10:00,65.3,50.1,29.91,SSE,157,2.2,-999.0,58,-99.99,,,0.00,Acu-Link.com,2013-05-26 00:10:00,
2013-05-25 17:25:00,64.4,50.7,29.92,South,180,3.2,-999.0,61,-99.99,,,0.00,Acu-Link.com,2013-05-26 00:25:00,
2013-05-25 17:40:00,63.5,50.7,29.92,WNW,292,3.2,-999.0,63,-99.99,,,0.00,Acu-Link.com,2013-05-26 00:40:00,
2013-05-25 17:55:00,61.9,50.8,29.91,SE,135,4.2,-999.0,67,-99.99,,,0.00,Acu-Link.com,2013-05-26 00:55:00,
2013-05-25 18:18:00,61.9,50.8,29.92,WNW,292,0.0,-999.0,67,-99.99,,,0.00,Acu-Link.com,2013-05-26 01:18:00,
2013-05-25 18:37:00,59.9,51.2,29.92,ENE,67,2.2,-999.0,73,-99.99,,,0.00,Acu-Link.com,2013-05-26 01:37:00,
2013-05-25 18:54:00,59.0,50.7,29.93,NNW,337,1.7,-999.0,74,-99.99,,,0.00,Acu-Link.com,2013-05-26 01:54:00,
2013-05-25 19:09:00,57.6,50.8,29.92,ENE,67,2.2,-999.0,78,-99.99,,,0.00,Acu-Link.com,2013-05-26 02:09:00,
2013-05-25 19:24:00,57.0,51.2,29.93,ESE,112,2.7,-999.0,81,-99.99,,,0.00,Acu-Link.com,2013-05-26 02:24:00,
2013-05-25 19:39:00,56.1,51.0,29.94,WNW,292,2.2,-999.0,83,-99.99,,,0.00,Acu-Link.com,2013-05-26 02:39:00,
2013-05-25 19:55:00,55.0,51.2,29.93,NNE,22,2.7,-999.0,87,-99.99,,,0.00,Acu-Link.com,2013-05-26 02:55:00,
2013-05-25 20:10:00,54.7,51.2,29.94,NW,315,3.2,-999.0,88,-99.99,,,0.00,Acu-Link.com,2013-05-26 03:10:00,
2013-05-25 20:25:00,54.7,51.5,29.93,South,180,1.7,-999.0,89,-99.99,,,0.00,Acu-Link.com,2013-05-26 03:25:00,
2013-05-25 20:40:00,54.3,51.4,29.95,SSE,157,2.7,-999.0,90,-99.99,,,0.00,Acu-Link.com,2013-05-26 03:40:00,
2013-05-25 20:55:00,54.1,51.5,29.94,SSE,157,1.7,-999.0,91,-99.99,,,0.00,Acu-Link.com,2013-05-26 03:55:00,
2013-05-25 21:10:00,53.8,51.5,29.94,West,270,1.7,-999.0,92,-99.99,,,0.00,Acu-Link.com,2013-05-26 04:10:00,
2013-05-25 21:25:00,53.6,51.6,29.95,WSW,247,2.2,-999.0,93,-99.99,,,0.00,Acu-Link.com,2013-05-26 04:25:00,
2013-05-25 21:40:00,53.4,51.4,29.95,NNE,22,2.2,-999.0,93,-99.99,,,0.00,Acu-Link.com,2013-05-26 04:40:00,
2013-05-25 21:55:00,53.1,51.4,29.95,North,0,3.2,-999.0,94,-99.99,,,0.00,Acu-Link.com,2013-05-26 04:55:00,
2013-05-25 22:11:00,53.1,51.7,29.95,NNE,22,4.2,-999.0,95,-99.99,,,0.00,Acu-Link.com,2013-05-26 05:11:00,
2013-05-25 22:26:00,52.9,51.8,29.96,SE,135,2.7,-999.0,96,-99.99,,,0.00,Acu-Link.com,2013-05-26 05:26:00,
2013-05-25 22:41:00,52.7,51.6,29.97,North,0,3.7,-999.0,96,-99.99,,,0.00,Acu-Link.com,2013-05-26 05:41:00,
2013-05-25 22:56:00,52.7,51.6,29.98,NNE,22,2.7,-999.0,96,-99.99,,,0.00,Acu-Link.com,2013-05-26 05:56:00,
2013-05-25 23:11:00,52.2,51.4,29.98,ENE,67,2.2,-999.0,97,-99.99,,,0.00,Acu-Link.com,2013-05-26 06:11:00,
2013-05-25 23:26:00,52.2,51.4,29.97,NNE,22,1.1,-999.0,97,-99.99,,,0.00,Acu-Link.com,2013-05-26 06:26:00,
2013-05-25 23:41:00,52.7,51.9,29.97,SSE,157,1.7,-999.0,97,-99.99,,,0.00,Acu-Link.com,2013-05-26 06:41:00,
2013-05-25 23:57:00,52.7,51.9,29.97,West,270,1.1,-999.0,97,-99.99,,,0.00,Acu-Link.com,2013-05-26 06:57:00,